Flag for U.S.A. Weather past 2 weeks in Kodiak, Alaska, U.S.A.

Now
55 °F

Passing clouds.


Feels Like: 55 °F
Forecast: 53 / 60 °F
Wind: No wind

Location: Kodiak Weather Reporting Station

Current Time: Jul 25, 2014 at 1:58:44 AM

Latest Report: Jul 25, 2014 at 12:53 AM


Visibility: 10 mi

Pressure: 29.84 "Hg

Humidity: 100%

Dew point: 55 °F

Location of KodiakLocation

Historic Weather in Kodiak — Graph

°F

Kodiak temperature yesterday

Maximum temperature yesterday: 59 °F (at 11:53 AM)
Minimum temperature yesterday: 48 °F (at 3:53 AM)
Average temperature yesterday: 55 °F

Past Weeks' High & Low Weather Summary

 TemperatureHumidityPressure
High72 °F (Jul 21, 3:53 PM)100% (Jul 10, 12:53 AM)30.36 "Hg (Jul 10, 12:53 AM)
Low45 °F (Jul 15, 4:53 AM)38% (Jul 20, 4:53 PM)29.48 "Hg (Jul 10, 9:53 PM)
Average57 °F79%29.94 "Hg
* Reported Jul 10 12:53 AM — Jul 25 12:53 AM, Kodiak, Weather by CustomWeather, © 2014

Note: Actual official high and low records may vary slightly from our data, if they occured in-between our weather recording intervals... More about our weather records

Advertising

Kodiak weather history for previous 24 hours

 ConditionsComfort  
Time TempWeatherWind HumidityBarometerVisibility
12:53 AM
Jul 25
55 °FPassing clouds.No wind100%29.84 "Hg10 mi
11:53 PM
Jul 24
54 °FLight rain. Fog.7 mph100%29.85 "Hg6 mi
10:53 PM55 °FLight rain. Mostly cloudy.8 mph100%29.85 "Hg7 mi
9:53 PM56 °FLight rain. Mostly cloudy.5 mph97%29.84 "Hg8 mi
8:53 PM57 °FLight rain. Mostly cloudy.No wind87%29.84 "Hg10 mi
7:53 PM57 °FMostly cloudy.5 mph87%29.84 "Hg10 mi
6:53 PM57 °FMostly cloudy.3 mph87%29.85 "Hg10 mi
5:53 PM57 °FBroken clouds.5 mph90%29.85 "Hg10 mi
4:53 PM58 °FBroken clouds.6 mph84%29.85 "Hg10 mi
3:53 PM58 °FOvercast.6 mph84%29.86 "Hg10 mi
2:53 PM59 °FPartly sunny.7 mph78%29.86 "Hg10 mi
1:53 PM59 °FBroken clouds.7 mph84%29.86 "Hg10 mi
12:53 PM58 °FBroken clouds.5 mph87%29.86 "Hg10 mi
11:53 AM59 °FBroken clouds.3 mph81%29.86 "Hg10 mi
10:53 AM57 °FMore clouds than sun.5 mph90%29.86 "Hg10 mi
9:53 AM57 °FMostly cloudy.3 mph87%29.86 "Hg10 mi
8:53 AM57 °FBroken clouds.No wind83%29.86 "Hg10 mi
7:53 AM56 °FBroken clouds.3 mph84%29.86 "Hg10 mi
6:53 AM50 °FBroken clouds.5 mph96%29.86 "Hg10 mi
5:53 AM49 °FPartly cloudy.6 mph100%29.87 "Hg10 mi
4:53 AM49 °FPartly cloudy.5 mph97%29.87 "Hg10 mi
3:53 AM48 °FPartly cloudy.6 mph100%29.88 "Hg10 mi
2:53 AM50 °FPartly cloudy.5 mph96%29.88 "Hg10 mi
1:53 AM52 °FPartly cloudy.5 mph93%29.88 "Hg10 mi
Weather by CustomWeather, © 2014

See weather overviewHow to use our weather pages